Meteo pe oră la Bolshie Tulyany

Astăzi, 18 Mai, Marţi

Timp Temperatura Precipitaţii Vânt Presiune Umiditate
00:00 +19°C° 0 mm 5 m/s 745 mmHg 58%
01:00 +17°C° 0 mm 5 m/s 745 mmHg 57%
02:00 +18°C° 0 mm 4 m/s 745 mmHg 55%
03:00 +17°C° 0 mm 4 m/s 745 mmHg 54%
04:00 +17°C° 0 mm 4 m/s 745 mmHg 58%
05:00 +17°C° 0 mm 4 m/s 745 mmHg 62%
06:00 +17°C° 0 mm 4 m/s 745 mmHg 65%
07:00 +19°C° 0 mm 4 m/s 745 mmHg 61%
08:00 +21°C° 0 mm 5 m/s 745 mmHg 57%
09:00 +23°C° 0 mm 5 m/s 745 mmHg 53%
10:00 +25°C° 0 mm 5 m/s 745 mmHg 50%
11:00 +27°C° 0 mm 5 m/s 744 mmHg 46%
12:00 +28°C° 0 mm 6 m/s 744 mmHg 43%
13:00 +29°C° 0 mm 6 m/s 744 mmHg 45%
14:00 +29°C° 0 mm 6 m/s 744 mmHg 47%
15:00 +29°C° 0 mm 7 m/s 743 mmHg 50%
16:00 +28°C° 0 mm 6 m/s 743 mmHg 52%
17:00 +27°C° 0 mm 6 m/s 743 mmHg 54%
18:00 +26°C° 0 mm 5 m/s 743 mmHg 56%
19:00 +25°C° 0 mm 5 m/s 743 mmHg 55%
20:00 +23°C° 0 mm 5 m/s 743 mmHg 53%
21:00 +22°C° 0 mm 6 m/s 743 mmHg 51%
22:00 +20°C° 0 mm 5 m/s 743 mmHg 58%
23:00 +19°C° 0 mm 4 m/s 743 mmHg 64%

Mâine, 19 Mai, Miercuri

Timp Temperatura Precipitaţii Vânt Presiune Umiditate
00:00 +17°C° 0 mm 4 m/s 743 mmHg 71%
01:00 +17°C° 0 mm 3 m/s 743 mmHg 75%
02:00 +16°C° 0 mm 2 m/s 743 mmHg 79%
03:00 +16°C° 0 mm 2 m/s 743 mmHg 84%
04:00 +16°C° 0 mm 2 m/s 743 mmHg 85%
05:00 +17°C° 0 mm 2 m/s 743 mmHg 86%
06:00 +18°C° 0 mm 1 m/s 743 mmHg 87%
07:00 +19°C° 0 mm 2 m/s 743 mmHg 81%
08:00 +20°C° 0 mm 2 m/s 743 mmHg 75%
09:00 +23°C° 0 mm 2 m/s 744 mmHg 69%
10:00 +24°C° 0 mm 2 m/s 743 mmHg 64%
11:00 +25°C° 0 mm 3 m/s 743 mmHg 59%
12:00 +26°C° 0 mm 3 m/s 743 mmHg 54%
13:00 +27°C° 0 mm 4 m/s 743 mmHg 52%
14:00 +27°C° 0 mm 4 m/s 743 mmHg 50%
15:00 +28°C° 0 mm 5 m/s 743 mmHg 48%
16:00 +27°C° 0 mm 4 m/s 742 mmHg 53%
17:00 +27°C° 0 mm 4 m/s 742 mmHg 58%
18:00 +26°C° 0 mm 3 m/s 742 mmHg 63%
19:00 +22°C° 0.2 mm 4 m/s 742 mmHg 72%
20:00 +20°C° 0.2 mm 4 m/s 743 mmHg 80%
21:00 +16°C° 0.2 mm 5 m/s 743 mmHg 89%
22:00 +17°C° 0.7 mm 3 m/s 743 mmHg 91%
23:00 +16°C° 0.7 mm 2 m/s 743 mmHg 93%

Poimâine, 20 Mai, Joi

Timp Temperatura Precipitaţii Vânt Presiune Umiditate
00:00 +15°C° 0.7 mm 1 m/s 743 mmHg 96%
01:00 +15°C° 0.1 mm 1 m/s 743 mmHg 96%
02:00 +14°C° 0.1 mm 2 m/s 744 mmHg 96%
03:00 +13°C° 0.1 mm 3 m/s 744 mmHg 96%
04:00 +13°C° 0.1 mm 3 m/s 744 mmHg 95%
05:00 +13°C° 0.1 mm 3 m/s 744 mmHg 94%
06:00 +13°C° 0.1 mm 3 m/s 744 mmHg 93%
07:00 +14°C° 0 mm 4 m/s 744 mmHg 86%
08:00 +16°C° 0 mm 5 m/s 744 mmHg 79%
09:00 +17°C° 0 mm 5 m/s 744 mmHg 72%
10:00 +17°C° 0.1 mm 6 m/s 744 mmHg 70%
11:00 +19°C° 0.1 mm 6 m/s 744 mmHg 68%
12:00 +18°C° 0.1 mm 7 m/s 745 mmHg 66%
13:00 +19°C° 0.3 mm 6 m/s 745 mmHg 68%
14:00 +19°C° 0.3 mm 6 m/s 745 mmHg 69%
15:00 +19°C° 0.3 mm 6 m/s 745 mmHg 71%
16:00 +19°C° 0.2 mm 6 m/s 745 mmHg 72%
17:00 +17°C° 0.2 mm 5 m/s 745 mmHg 74%
18:00 +17°C° 0.2 mm 5 m/s 745 mmHg 75%
19:00 +16°C° 0.1 mm 5 m/s 745 mmHg 81%
20:00 +14°C° 0.1 mm 4 m/s 745 mmHg 86%
21:00 +13°C° 0.1 mm 3 m/s 745 mmHg 92%
22:00 +13°C° 0 mm 3 m/s 746 mmHg 92%
23:00 +12°C° 0 mm 3 m/s 746 mmHg 93%

21 Mai, Vineri

Timp Temperatura Precipitaţii Vânt Presiune Umiditate
00:00 +12°C° 0 mm 4 m/s 746 mmHg 93%
01:00 +12°C° 0 mm 4 m/s 746 mmHg 94%
02:00 +11°C° 0 mm 4 m/s 746 mmHg 94%
03:00 +11°C° 0 mm 4 m/s 746 mmHg 95%
04:00 +12°C° 0 mm 4 m/s 746 mmHg 92%
05:00 +12°C° 0 mm 5 m/s 746 mmHg 90%
06:00 +13°C° 0 mm 5 m/s 747 mmHg 88%
07:00 +14°C° 0 mm 5 m/s 747 mmHg 83%
08:00 +14°C° 0 mm 6 m/s 747 mmHg 77%
09:00 +15°C° 0 mm 6 m/s 748 mmHg 72%
10:00 +16°C° 0 mm 6 m/s 748 mmHg 67%
11:00 +17°C° 0 mm 7 m/s 748 mmHg 62%
12:00 +18°C° 0 mm 7 m/s 749 mmHg 58%
13:00 +19°C° 0 mm 6 m/s 749 mmHg 56%
14:00 +20°C° 0 mm 6 m/s 749 mmHg 55%
15:00 +21°C° 0 mm 6 m/s 749 mmHg 54%
16:00 +20°C° 0 mm 5 m/s 749 mmHg 58%
17:00 +19°C° 0 mm 4 m/s 750 mmHg 63%
18:00 +19°C° 0 mm 3 m/s 750 mmHg 67%
19:00 +18°C° 0 mm 2 m/s 750 mmHg 71%
20:00 +16°C° 0 mm 2 m/s 750 mmHg 74%
21:00 +15°C° 0 mm 2 m/s 751 mmHg 77%
22:00 +15°C° 0 mm 2 m/s 751 mmHg 79%
23:00 +14°C° 0 mm 2 m/s 751 mmHg 81%

22 Mai, Sâmbătă

Timp Temperatura Precipitaţii Vânt Presiune Umiditate
00:00 +13°C° 0 mm 3 m/s 751 mmHg 83%
01:00 +13°C° 0.1 mm 3 m/s 751 mmHg 83%
02:00 +12°C° 0.1 mm 3 m/s 751 mmHg 84%
03:00 +12°C° 0.1 mm 4 m/s 751 mmHg 85%
04:00 +12°C° 0.1 mm 4 m/s 751 mmHg 85%
05:00 +12°C° 0.1 mm 5 m/s 751 mmHg 85%
06:00 +11°C° 0.1 mm 6 m/s 751 mmHg 85%
07:00 +14°C° 0 mm 6 m/s 751 mmHg 82%
08:00 +15°C° 0 mm 6 m/s 751 mmHg 78%
09:00 +17°C° 0 mm 6 m/s 750 mmHg 74%
10:00 +20°C° 0 mm 6 m/s 750 mmHg 68%
11:00 +22°C° 0 mm 6 m/s 750 mmHg 63%
12:00 +25°C° 0 mm 5 m/s 749 mmHg 57%
13:00 +26°C° 0 mm 5 m/s 749 mmHg 55%
14:00 +27°C° 0 mm 5 m/s 749 mmHg 53%
15:00 +28°C° 0 mm 5 m/s 748 mmHg 52%
16:00 +28°C° 0 mm 4 m/s 748 mmHg 57%
17:00 +27°C° 0 mm 3 m/s 748 mmHg 62%
18:00 +26°C° 0 mm 2 m/s 748 mmHg 68%
19:00 +25°C° 0 mm 2 m/s 748 mmHg 72%
20:00 +23°C° 0 mm 2 m/s 748 mmHg 76%
21:00 +20°C° 0 mm 2 m/s 748 mmHg 80%
22:00 +20°C° 0 mm 2 m/s 748 mmHg 79%
23:00 +20°C° 0 mm 3 m/s 748 mmHg 79%

23 Mai, Duminică

Timp Temperatura Precipitaţii Vânt Presiune Umiditate
00:00 +19°C° 0 mm 3 m/s 748 mmHg 78%
01:00 +19°C° 0 mm 3 m/s 747 mmHg 75%
02:00 +19°C° 0 mm 3 m/s 747 mmHg 72%
03:00 +19°C° 0 mm 3 m/s 747 mmHg 69%
04:00 +19°C° 0 mm 3 m/s 747 mmHg 70%
05:00 +19°C° 0 mm 3 m/s 747 mmHg 71%
06:00 +19°C° 0 mm 3 m/s 747 mmHg 72%
07:00 +20°C° 0 mm 3 m/s 747 mmHg 68%
08:00 +22°C° 0 mm 4 m/s 747 mmHg 64%
09:00 +25°C° 0 mm 4 m/s 747 mmHg 60%
10:00 +26°C° 0 mm 4 m/s 747 mmHg 57%
11:00 +27°C° 0 mm 4 m/s 747 mmHg 55%
12:00 +28°C° 0 mm 5 m/s 747 mmHg 52%
13:00 +29°C° 0 mm 5 m/s 746 mmHg 51%
14:00 +30°C° 0 mm 5 m/s 746 mmHg 51%
15:00 +32°C° 0 mm 5 m/s 746 mmHg 50%
16:00 +30°C° 0 mm 5 m/s 746 mmHg 55%
17:00 +29°C° 0 mm 4 m/s 745 mmHg 60%
18:00 +28°C° 0 mm 4 m/s 745 mmHg 64%
19:00 +26°C° 0 mm 4 m/s 745 mmHg 69%
20:00 +25°C° 0 mm 3 m/s 745 mmHg 73%
21:00 +22°C° 0 mm 3 m/s 745 mmHg 77%
22:00 +21°C° 0 mm 3 m/s 745 mmHg 79%
23:00 +21°C° 0 mm 2 m/s 745 mmHg 81%
Arată mai mult

Formular de consimțământ

Meteoprog și furnizorii noștri de servicii pot stoca și accesa date personale, precum cookies, identificatori de dispozitiv sau alte tehnologii similare pe dispozitivul dumneavoastră și procesa astfel de date pentru a personaliza conținutul și reclamele, dar și pentru a oferi caracteristici de social media și pentru a analiza traficul.

  • Stocarea și/sau accesarea informațiilor pe dispozitivul dumneavoastră

    Cookies, identificatori de dispozitiv sau alte informații pot fi stocate sau accesate pe dispozitiv în scopurile indicate mai sus.

  • Reclame și conținut personalizat, evaluarea reclamelor și a conținutului, informații despre audiențe și dezvoltarea produselor

    Reclamele și conținutul pot fi personalizate pe baza unui profil. Pot fi adăugate date suplimentare pentru a personaliza mai bine reclamele și conținutul. Performanța reclamelor și conținutului poate fi măsurată. Pot fi obținute informații despre utilizatorii care au văzut reclamele și conținutul. Aceste date pot fi utilizate pentru a dezvolta sau îmbunătăți experiența utilizatorilor, sistemele și software-ul.

Dând clic pe ‘Sunt de acord’, permiteți utilizarea cookie-urilor menționate, a identificatorilor de dispozitiv, balizelor web sau altor tehnologii similare. Setările pot fi modificate din browser-ul dispozitivului dumneavoastră.

În anumite scopuri, interesele legitime pot prima asupra consimțământului. Puteți citi mai multe informații în acest sens în Politica privind Confidențialitatea Datelor și Cookie.